Flag for India

Past Weather in Tiruchirappalli, Tamil Nadu, India — Yesterday and Last 2 Weeks

Now
95 °F

Scattered clouds.


Feels Like: 105 °F
Forecast: 88 / 81 °F
Wind: 12 mph from West

Location: Tiruchchirapalli

Current Time: Jul 2, 2020 at 12:51:23 pm

Latest Report: Jul 2, 2020 at 12:00 pm


Visibility: 5 mi

Pressure: 29.65 "Hg

Humidity: 50%

Dew Point: 73 °F

Location of TiruchirappalliLocation

Past Weather in Tiruchirappalli — Graph

°F

Tiruchirappalli Temperature Yesterday

Maximum temperature yesterday: 99 °F (at 2:30 pm)
Minimum temperature yesterday: 82 °F (at 5:30 am)
Average temperature yesterday: 90 °F

High & Low Weather Summary for the Past Weeks

 TemperatureHumidityPressure
High104 °F (Jun 17, 3:00 pm)94% (Jun 23, 8:30 pm)29.77 "Hg (Jun 23, 8:30 pm)
Low73 °F (Jun 23, 8:30 pm)31% (Jun 18, 1:00 pm)29.56 "Hg (Jun 27, 4:30 pm)
Average89 °F59%29.68 "Hg
* Reported Jun 17 11:30 am — Jul 2 11:30 am, Tiruchirappalli. Weather by CustomWeather, © 2020

Note: Actual official high and low records may vary slightly from our data, if they occured in-between our weather recording intervals... More about our weather records

Tiruchirappalli Weather History for the Previous 24 Hours

Scroll right to see more
 ConditionsComfort  
Time TempWeatherWind HumidityBarometerVisibility
11:30 am
Thu, Jul 2
95 °FScattered clouds.7 mph50%29.68 "Hg5 mi
11:00 am91 °FScattered clouds.12 mph52%29.68 "Hg5 mi
10:30 am90 °FScattered clouds.12 mph55%29.71 "Hg4 mi
10:00 am90 °FScattered clouds.12 mph55%29.71 "Hg4 mi
9:30 am88 °FScattered clouds.9 mph59%29.71 "Hg4 mi
8:30 am86 °FScattered clouds.12 mph62%29.71 "Hg4 mi
7:30 am84 °FScattered clouds.10 mph66%29.68 "Hg4 mi
6:30 am82 °FScattered clouds.7 mph70%29.68 "Hg4 mi
5:30 am82 °FPassing clouds.9 mph70%29.65 "Hg4 mi
4:30 am82 °FPassing clouds.6 mph70%29.65 "Hg4 mi
3:30 am84 °FPassing clouds.9 mph62%29.65 "Hg4 mi
2:30 am84 °FPassing clouds.12 mph66%29.68 "Hg4 mi
1:30 am86 °FPassing clouds.9 mph62%29.68 "Hg4 mi
12:30 am86 °FPassing clouds.7 mph62%29.68 "Hg4 mi
11:30 pm
Wed, Jul 1
88 °FPassing clouds.9 mph59%29.71 "Hg4 mi
11:00 pm88 °FPassing clouds.9 mph59%29.71 "Hg4 mi
10:30 pm88 °FPassing clouds.9 mph59%29.71 "Hg4 mi
10:00 pm88 °FPassing clouds.9 mph62%29.71 "Hg4 mi
9:30 pm88 °FPassing clouds.5 mph62%29.71 "Hg4 mi
9:00 pm90 °FPassing clouds.6 mph55%29.68 "Hg4 mi
8:30 pm90 °FPassing clouds.6 mph59%29.68 "Hg4 mi
8:00 pm91 °FPassing clouds.7 mph63%29.65 "Hg4 mi
7:30 pm91 °FPartly cloudy.9 mph63%29.62 "Hg4 mi
7:00 pm91 °FBroken clouds.5 mph59%29.62 "Hg4 mi
6:30 pm93 °FBroken clouds.5 mph56%29.62 "Hg4 mi
5:30 pm97 °FScattered clouds.7 mph47%29.59 "Hg4 mi
4:30 pm95 °FScattered clouds.7 mph50%29.59 "Hg4 mi
3:30 pm97 °FPartly sunny.6 mph47%29.62 "Hg4 mi
2:30 pm99 °FScattered clouds.7 mph42%29.62 "Hg5 mi
1:30 pm97 °FScattered clouds.9 mph44%29.65 "Hg5 mi
12:30 pm97 °FScattered clouds.12 mph44%29.68 "Hg5 mi
Weather by CustomWeather, © 2020

See weather overview